Location: Hac?musa Deresi
(39.1694°N, 32.2508°E)
Time: 23:23:26
(UTC+00:00)

Cosmos 2366 rocket - Pass Details

Date: 22 April 2026
Orbit: 954 x 996 km, 82.9° (Epoch: 9 May)

Event Time Altitude Azimuth Distance (km) Brightness Sun altitude
Rises 17:11:36 0° 182° (S) 3,630 6.8 -7.5°
Reaches altitude 10° 17:14:05 10° 182° (S) 2,683 6.1 -7.9°
Maximum altitude 17:20:13 82° 95° (E) 969 3.9 -9.0°
Drops below altitude 10° 17:26:22 10° 9° (N) 2,689 6.5 -10.1°
Sets 17:28:52 0° 9° (N) 3,639 7.2 -10.5°
